CZ-6A DEB, 54511

Orbit data source: Space-Track

CZ-6A DEB, 54511 is space debris in SSO originally from a launch on Fri, 11 Nov 2022 UTC launched from the Taiyaun Space Center, China (TSC). Debris objects in space refer to the collection of defunct objects orbiting the Earth. Examples of debris include non-operational satellites, rocket bodies, and fragments generated from explosions, collisions, or faulty payload assembly.

Loading next visibility...
Identifier
54511, 2022-151JP
Orbit
SSO
Country
Flag of CNCN / PRC
Related business
Manufacturer
SAST
Mission
Spacecraft
Bus & Motor
Unknown
Mass
Unknown
Launch date (UTC)
2022-11-11 (3 years ago)
Launch vehicle
Unknown
Launch site
Taiyaun Space Center, China (TSC)
Object type
Payload
Rocket body
Debris
Shape & HBR
Unknown shape, 0.3 m
Radar Cross Section
Medium (>0.1 m² and <1 m²)

Expand to show TLE details & history
Last TLE update: 15 hours ago

TLE from 15 hours ago
0 CZ-6A DEB
1 54511U 22151JP  25351.44676171  .00000193  00000-0  16431-3 0  9990
2 54511  98.8871 322.5368 0130024 232.2744 126.6576 13.94771709157376
Epoch: 2025-12-17T10:43Z
TLE epoch observation values (Epoch: 2025-12-17T10:43:20.211Z)
Latitude
-0.00002°
Longitude
75.38609°
Altitude
972.217 km
Speed
7.337 km/s
True Right ascension
21h 30m 08s
True Declination
0° 00' 00"
Sunlit
Object was in daylight at epoch
Visualization orbit readout
Latitude
Unknown
Longitude
Unknown
Altitude
Unknown
Speed
Unknown
Apparent Right ascension
Unknown
Apparent Declination
Unknown
Sunlit
N/A
Visualization observer readout
Local Sidereal Time
00:27:31
Azimuth
Unknown
Elevation
Unknown
Doppler factor
Unknown
Orbital elements
Apogee altitude
1,003.909 km
Perigee altitude
814.404 km
Semi-major axis
7,287.294 km
Eccentricity
0.013
Inclination
98.8871°
RAAN
322.5368°
Arg. of periapsis
232.2744°
True anomaly
127.8413°
Mean anomaly
126.6576°
Eccentric anomaly
127.2506°
Mean motion
3.48894 °/min
Orbital period
103.18 mins
BSTAR
0.00016431
Loading maneuver chart data...
Computing Atmospheric mass density...
Loading historical data...
Loading historical data...
Loading historical data...
Loading historical data...
Loading historical data...
Loading historical data...
Loading historical data...

Documentation

Showing up to 5 results
|